| time (UTC) | temp C | wind direction | speed KPH | gust KPH | rain 1hr cm | rain 24hr cm | rain mn cm | humidity % | barometer mb |
| 20260503201504 | 16 | 243 | 8.0 | 32.2 | 0.00 | 0.00 | 0.00 | 45 | 1010.9 |
| 20260503200004 | 16 | 231 | 16.1 | 37.0 | 0.00 | 0.00 | 0.00 | 42 | 1010.9 |
| 20260503194504 | 16 | 269 | 17.7 | 33.8 | 0.00 | 0.00 | 0.00 | 43 | 1011.2 |
| 20260503193007 | 16 | 254 | 16.1 | 32.2 | 0.00 | 0.00 | 0.00 | 42 | 1011.4 |
| 20260503191503 | 16 | 203 | 14.5 | 29.0 | 0.00 | 0.00 | 0.00 | 45 | 1011.7 |
| 20260503190006 | 16 | 203 | 12.9 | 35.4 | 0.00 | 0.00 | 0.00 | 43 | 1011.7 |
| 20260503184507 | 16 | 236 | 11.3 | 29.0 | 0.00 | 0.00 | 0.00 | 44 | 1011.8 |
| 20260503183003 | 16 | 251 | 16.1 | 33.8 | 0.00 | 0.00 | 0.00 | 41 | 1012.0 |
| 20260503181517 | 16 | 193 | 17.7 | 43.5 | 0.00 | 0.00 | 0.00 | 41 | 1012.2 |
| 20260503180014 | 16 | 253 | 11.3 | 30.6 | 0.00 | 0.00 | 0.00 | 42 | 1012.7 |
| 20260503174505 | 16 | 256 | 12.9 | 32.2 | 0.00 | 0.00 | 0.00 | 39 | 1012.9 |
| 20260503173007 | 16 | 204 | 16.1 | 32.2 | 0.00 | 0.00 | 0.00 | 43 | 1012.9 |
| 20260503171511 | 16 | 165 | 12.9 | 25.7 | 0.00 | 0.00 | 0.00 | 42 | 1013.2 |
| 20260503081518 | 1 | 208 | 1.6 | 4.8 | 0.00 | 0.00 | 0.00 | 75 | 1015.6 |
| 20260503071520 | 1 | 227 | 0.0 | 3.2 | 0.00 | 0.00 | 0.00 | 80 | 1015.7 |
| 20260503054532 | 0 | 317 | 0.0 | 1.6 | 0.00 | 0.00 | 0.00 | 90 | 1016.2 |
| 20260503053015 | 0 | 317 | 0.0 | 0.0 | 0.00 | 0.00 | 0.00 | 89 | 1016.3 |
| 20260503051515 | 0 | 317 | 0.0 | 0.0 | 0.00 | 0.00 | 0.00 | 90 | 1016.5 |
| 20260503050018 | 0 | 317 | 0.0 | 0.0 | 0.00 | 0.00 | 0.00 | 89 | 1016.6 |
| 20260503044522 | 0 | 317 | 0.0 | 0.0 | 0.00 | 0.00 | 0.00 | 90 | 1016.6 |
| 20260503043026 | 0 | 317 | 0.0 | 0.0 | 0.00 | 0.00 | 0.00 | 90 | 1016.5 |
| 20260503041510 | 0 | 317 | 0.0 | 0.0 | 0.00 | 0.00 | 0.00 | 90 | 1016.5 |
| 20260503040027 | 0 | 317 | 0.0 | 0.0 | 0.00 | 0.00 | 0.00 | 90 | 1016.7 |
| 20260503034504 | 0 | 317 | 0.0 | 0.0 | 0.00 | 0.00 | 0.00 | 90 | 1016.7 |
| 20260503033004 | 0 | 317 | 0.0 | 0.0 | 0.00 | 0.00 | 0.00 | 88 | 1016.7 |
| 20260503031508 | 0 | 317 | 0.0 | 1.6 | 0.00 | 0.00 | 0.00 | 87 | 1016.6 |
| 20260503030009 | 1 | 317 | 0.0 | 0.0 | 0.00 | 0.00 | 0.00 | 88 | 1016.6 |
| 20260503024516 | 1 | 317 | 0.0 | 0.0 | 0.00 | 0.00 | 0.00 | 86 | 1016.7 |
| 20260503023004 | 1 | 317 | 0.0 | 0.0 | 0.00 | 0.00 | 0.00 | 86 | 1016.7 |
| 20260503021507 | 1 | 317 | 0.0 | 0.0 | 0.00 | 0.00 | 0.00 | 86 | 1016.7 |
| 20260503020009 | 2 | 317 | 0.0 | 0.0 | 0.00 | 0.00 | 0.00 | 84 | 1016.6 |
| 20260503014512 | 2 | 317 | 0.0 | 0.0 | 0.00 | 0.00 | 0.00 | 81 | 1016.6 |
| 20260503013016 | 3 | 317 | 0.0 | 0.0 | 0.00 | 0.00 | 0.00 | 78 | 1016.5 |
| 20260503011508 | 4 | 317 | 0.0 | 0.0 | 0.00 | 0.00 | 0.00 | 76 | 1016.5 |
| 20260503010008 | 5 | 317 | 0.0 | 0.0 | 0.00 | 0.00 | 0.00 | 72 | 1016.5 |
| 20260503004509 | 6 | 317 | 0.0 | 0.0 | 0.00 | 0.00 | 0.00 | 67 | 1016.4 |
| 20260503003013 | 6 | 317 | 0.0 | 0.0 | 0.00 | 0.00 | 0.00 | 61 | 1016.5 |
| 20260503001518 | 7 | 317 | 0.0 | 1.6 | 0.00 | 0.00 | 0.00 | 56 | 1016.6 |
| 20260503000022 | 7 | 317 | 0.0 | 1.6 | 0.00 | 0.00 | 0.00 | 52 | 1016.5 |
| 20260502234523 | 8 | 317 | 0.0 | 6.4 | 0.00 | 0.00 | 0.00 | 51 | 1016.5 |
| 20260502233011 | 8 | 246 | 1.6 | 4.8 | 0.00 | 0.00 | 0.00 | 50 | 1016.5 |
| 20260502231517 | 8 | 264 | 0.0 | 3.2 | 0.00 | 0.00 | 0.00 | 51 | 1016.6 |
| 20260502230021 | 8 | 264 | 0.0 | 6.4 | 0.00 | 0.00 | 0.00 | 51 | 1016.7 |
| 20260502224525 | 8 | 284 | 1.6 | 8.0 | 0.00 | 0.00 | 0.00 | 49 | 1016.7 |
| 20260502223007 | 8 | 239 | 1.6 | 11.3 | 0.00 | 0.00 | 0.00 | 48 | 1016.7 |
| 20260502221511 | 8 | 246 | 4.8 | 16.1 | 0.00 | 0.00 | 0.00 | 44 | 1016.7 |
| 20260502220025 | 8 | 288 | 3.2 | 11.3 | 0.00 | 0.00 | 0.00 | 46 | 1016.7 |
| 20260502214523 | 8 | 316 | 1.6 | 11.3 | 0.00 | 0.00 | 0.00 | 49 | 1016.7 |
| 20260502213031 | 8 | 276 | 3.2 | 9.7 | 0.00 | 0.00 | 0.00 | 44 | 1016.6 |
| 20260502211510 | 8 | 269 | 3.2 | 14.5 | 0.00 | 0.00 | 0.00 | 46 | 1016.7 |
| 20260502210019 | 8 | 248 | 1.6 | 11.3 | 0.00 | 0.00 | 0.00 | 49 | 1016.9 |
| 20260502204519 | 8 | 266 | 3.2 | 14.5 | 0.00 | 0.00 | 0.00 | 45 | 1016.9 |
| 20260502203026 | 8 | 281 | 0.0 | 12.9 | 0.00 | 0.00 | 0.00 | 47 | 1017.0 |